ONEWEB-0247 (48777 NORAD) Tracking and Keplerian Element Data

This shows tracking and keplerian element data for the satellite.

Feedback or suggestion? Click here.




ElementValue
Catalog48777
NameONEWEB-0247
Epoch Orbit353
Epoch Day214.91667824
Epoch Year2021
RAAN254.6953
Inclination87.5679
Eccentricity0.0008389
Argument of Perigee40.5076
Mean Anonmoly76.1269
Mean Motion14.31748723
Decay Rate-0.0143265
L11 48777U 21045L 21214.91667824 -.01432650 00000-0 -57430+0 0 9999
L22 48777 87.5679 254.6953 0008389 40.5076 76.1269 14.31748723 3533

Live tracking and technical data element details for ONEWEB-0247 (NORAD 48777). ONEWEB-0247 can be tracked NOW for your location showing map with azimuth and elevation plus other details from your city location.

Track the satellite on the map from your city or location and see movement details for azimuth, elevation, latitude, longitude, range, height, and movement on the map or in text.







IsCatalogInMostPopularTable: catalog: 48777, numindb: 19
Update: records affected: 1



GetName: 48777 ONEWEB-0247

Hit Count: updated at: Tue, 03 Aug 2021 23:28:34 GMT